Tillbaka till svenska Fidonet
English   Information   Debug  
FILM   0/18
FNEWS_PUBLISH   4926
FN_SYSOP   42201
FN_SYSOP_OLD1   71952
FTP_FIDO   0/2
FTSC_PUBLIC   0/13972
FUNNY   0/4886
GENEALOGY.EUR   0/71
GET_INFO   105
GOLDED   0/408
HAM   4575/16660
HOLYSMOKE   0/6791
HOT_SITES   0/1
HTMLEDIT   0/71
HUB203   466
HUB_100   264
HUB_400   39
HUMOR   0/29
IC   0/2851
INTERNET   0/424
INTERUSER   0/3
IP_CONNECT   719
JAMNNTPD   0/233
JAMTLAND   0/47
KATTY_KORNER   0/41
LAN   0/16
LINUX-USER   0/19
LINUXHELP   0/1155
LINUX   0/22300
LINUX_BBS   0/957
mail   18.68
mail_fore_ok   249
MENSA   0/341
MODERATOR   0/102
MONTE   0/992
MOSCOW_OKLAHOMA   0/1245
MUFFIN   0/783
MUSIC   0/321
N203_STAT   938
N203_SYSCHAT   313
NET203   321
NET204   69
NET_DEV   0/10
NORD.ADMIN   0/101
NORD.CHAT   0/2572
NORD.FIDONET   189
NORD.HARDWARE   0/28
NORD.KULTUR   0/114
NORD.PROG   0/32
NORD.SOFTWARE   0/88
NORD.TEKNIK   0/58
NORD   0/453
OCCULT_CHAT   0/93
OS2BBS   0/787
OS2DOSBBS   0/580
OS2HW   0/42
OS2INET   0/37
OS2LAN   0/134
OS2PROG   0/36
OS2REXX   0/113
OS2USER-L   207
OS2   0/4830
OSDEBATE   0/18996
PASCAL   0/490
PERL   0/457
PHP   0/45
POINTS   0/405
POLITICS   0/29554
POL_INC   0/14731
PSION   103
R20_ADMIN   1133
R20_AMATORRADIO   0/2
R20_BEST_OF_FIDONET   16
R20_CHAT   0/896
R20_DEPP   0/3
R20_DEV   400
R20_ECHO2   1831
R20_ECHOPRES   0/35
R20_ESTAT   0/719
R20_FIDONETPROG...
...RAM.MYPOINT
  0/2
R20_FIDONETPROGRAM   0/22
R20_FIDONET   0/248
R20_FILEFIND   0/24
R20_FILEFOUND   0/22
R20_HIFI   0/3
R20_INFO2   3723
R20_INTERNET   0/12940
R20_INTRESSE   0/60
R20_INTR_KOM   0/99
R20_KANDIDAT.CHAT   42
R20_KANDIDAT   28
R20_KOM_DEV   112
R20_KONTROLL   0/13360
R20_KORSET   0/18
R20_LOKALTRAFIK   0/24
R20_MODERATOR   0/1852
R20_NC   76
R20_NET200   245
R20_NETWORK.OTH...
...ERNETS
  0/13
R20_OPERATIVSYS...
...TEM.LINUX
  0/44
R20_PROGRAMVAROR   0/1
R20_REC2NEC   534
R20_SFOSM   0/341
R20_SF   0/108
R20_SPRAK.ENGLISH   0/1
R20_SQUISH   107
R20_TEST   2
R20_WORST_OF_FIDONET   20
RAR   0/9
RA_MULTI   106
RA_UTIL   0/162
REGCON.EUR   0/2068
REGCON   0/13
SCIENCE   0/1206
SF   0/239
SHAREWARE_SUPPORT   0/5146
SHAREWRE   0/14
SIMPSONS   0/169
STATS_OLD1   0/2539.065
STATS_OLD2   0/2530
STATS_OLD3   0/2395.095
STATS_OLD4   0/1692.25
SURVIVOR   0/495
SYSOPS_CORNER   0/3
SYSOP   0/84
TAGLINES   0/112
TEAMOS2   0/4530
TECH   0/2617
TEST.444   0/105
TRAPDOOR   0/19
TREK   0/755
TUB   0/290
UFO   0/40
UNIX   0/1316
USA_EURLINK   0/102
USR_MODEMS   0/1
VATICAN   0/2740
VIETNAM_VETS   0/14
VIRUS   0/378
VIRUS_INFO   0/201
VISUAL_BASIC   0/473
WHITEHOUSE   0/5187
WIN2000   0/101
WIN32   0/30
WIN95   0/4291
WIN95_OLD1   0/70272
WINDOWS   0/1517
WWB_SYSOP   0/419
WWB_TECH   0/810
ZCC-PUBLIC   0/1
ZEC   4

 
4DOS   0/134
ABORTION   0/7
ALASKA_CHAT   0/506
ALLFIX_FILE   0/1313
ALLFIX_FILE_OLD1   0/7997
ALT_DOS   0/152
AMATEUR_RADIO   0/1039
AMIGASALE   0/14
AMIGA   0/331
AMIGA_INT   0/1
AMIGA_PROG   0/20
AMIGA_SYSOP   0/26
ANIME   0/15
ARGUS   0/924
ASCII_ART   0/340
ASIAN_LINK   0/651
ASTRONOMY   0/417
AUDIO   0/92
AUTOMOBILE_RACING   0/105
BABYLON5   0/17862
BAG   135
BATPOWER   0/361
BBBS.ENGLISH   0/382
BBSLAW   0/109
BBS_ADS   0/5290
BBS_INTERNET   0/507
BIBLE   0/3563
BINKD   0/1119
BINKLEY   0/215
BLUEWAVE   0/2173
CABLE_MODEMS   0/25
CBM   0/46
CDRECORD   0/66
CDROM   0/20
CLASSIC_COMPUTER   0/378
COMICS   0/15
CONSPRCY   0/899
COOKING   41444
COOKING_OLD1   0/24719
COOKING_OLD2   0/40862
COOKING_OLD3   0/37489
COOKING_OLD4   0/35496
COOKING_OLD5   9370
C_ECHO   0/189
C_PLUSPLUS   0/31
DIRTY_DOZEN   0/201
DOORGAMES   0/2285
DOS_INTERNET   0/196
duplikat   6102
ECHOLIST   0/18295
EC_SUPPORT   0/318
ELECTRONICS   0/359
ELEKTRONIK.GER   1534
ENET.LINGUISTIC   0/13
ENET.POLITICS   0/4
ENET.SOFT   0/11701
ENET.SYSOP   34296
ENET.TALKS   0/32
ENGLISH_TUTOR   0/2000
EVOLUTION   0/1335
FDECHO   0/217
FDN_ANNOUNCE   0/7068
FIDONEWS   25062
FIDONEWS_OLD1   0/49742
FIDONEWS_OLD2   4065/35949
FIDONEWS_OLD3   0/30874
FIDONEWS_OLD4   0/37224
FIDO_SYSOP   12922
FIDO_UTIL   0/180
FILEFIND   0/209
FILEGATE   0/212
Möte HAM, 16660 texter
 lista första sista föregående nästa
Text 3243, 885 rader
Skriven 2009-10-01 22:01:32 av Amsat List (1:323/120.0)
Ärende: [keps]  orb09274.amsa
=============================
[keps]  orb09274.amsa

Return-Path: <keps-bounces@amsat.org>
X-Rcpt: craig.healy@chowda.com
X-UIDL: 1254448486.460

SB KEPS @ AMSAT  $ORB09274.O
Orbital Elements  09274.OSCAR

HR AMSAT ORBITAL ELEMENTS FOR OSCAR SATELLITES
FROM WA5QGD FORT WORTH,TX October 1, 2009
Send Subscribe/unsubscribe to KEPS at 
http://www.amsat.org/mailman/listinfo/keps
BID: ORB09274.O
TO ALL RADIO AMATEURS BT

Satellite: AO-07
Catalog number: 07530
Epoch time:      09273.59281345
Element set:    0595
Inclination:      101.4221 deg
RA of node:       294.3824 deg
Eccentricity:    0.0012123
Arg of perigee:   062.1427 deg
Mean anomaly:     298.0867 deg
Mean motion:   12.53576622 rev/day
Decay rate:       -2.7e-07 rev/day^2
Epoch rev:           59592
Checksum:              303

Satellite: FO-29
Catalog number: 24278
Epoch time:      09273.75534613
Element set:    0160
Inclination:      098.5358 deg
RA of node:       133.5216 deg
Eccentricity:    0.0351378
Arg of perigee:   076.7982 deg
Mean anomaly:     287.2093 deg
Mean motion:   13.52945025 rev/day
Decay rate:       -2.9e-07 rev/day^2
Epoch rev:           64802
Checksum:              331

Satellite: SO-33
Catalog number: 25509
Epoch time:      09274.78724859
Element set:     554
Inclination:      031.4324 deg
RA of node:       169.7212 deg
Eccentricity:    0.0354193
Arg of perigee:   190.6050 deg
Mean anomaly:     168.6942 deg
Mean motion:   14.28269710 rev/day
Decay rate:       4.04e-06 rev/day^2
Epoch rev:           57108
Checksum:              319

Satellite: RS-22
Catalog number: 27939
Epoch time:      09273.70597294
Element set:    0904
Inclination:      097.9256 deg
RA of node:       144.6403 deg
Eccentricity:    0.0013798
Arg of perigee:   155.4251 deg
Mean anomaly:     204.7594 deg
Mean motion:   14.63343096 rev/day
Decay rate:        2.8e-07 rev/day^2
Epoch rev:           32100
Checksum:              319

Satellite: VO-52
Catalog number: 28650
Epoch time:      09274.21538008
Element set:     331
Inclination:      097.7317 deg
RA of node:       332.2271 deg
Eccentricity:    0.0027926
Arg of perigee:   045.2921 deg
Mean anomaly:     315.0541 deg
Mean motion:   14.81625091 rev/day
Decay rate:       3.77e-06 rev/day^2
Epoch rev:           23834
Checksum:              290

/EX
SB KEPS @ AMSAT  $ORB09274.D
Orbital Elements  09274.MICROS

HR AMSAT ORBITAL ELEMENTS FOR THE MICROSATS
FROM WA5QGD FORT WORTH,TX October 1, 2009
Send Subscribe/unsubscribe to KEPS at 
http://www.amsat.org/mailman/listinfo/keps
BID: ORB09274.D
TO ALL RADIO AMATEURS BT

Satellite: AO-16
Catalog number: 20439
Epoch time:      09274.77250725
Element set:     715
Inclination:      098.2929 deg
RA of node:       238.3972 deg
Eccentricity:    0.0010276
Arg of perigee:   210.6092 deg
Mean anomaly:     149.4488 deg
Mean motion:   14.31834458 rev/day
Decay rate:        1.0e-07 rev/day^2
Epoch rev:            2840
Checksum:              309

Satellite: LO-19
Catalog number: 20442
Epoch time:      09274.67232865
Element set:     630
Inclination:      098.2574 deg
RA of node:       245.1515 deg
Eccentricity:    0.0011525
Arg of perigee:   206.1765 deg
Mean anomaly:     153.8835 deg
Mean motion:   14.32068816 rev/day
Decay rate:       -4.0e-08 rev/day^2
Epoch rev:            2855
Checksum:              300

Satellite: AO-27
Catalog number: 22825
Epoch time:      09273.92445577
Element set:    0354
Inclination:      098.4480 deg
RA of node:       224.0748 deg
Eccentricity:    0.0007857
Arg of perigee:   317.9303 deg
Mean anomaly:     042.1271 deg
Mean motion:   14.29274237 rev/day
Decay rate:       -4.0e-08 rev/day^2
Epoch rev:           83501
Checksum:              309

Satellite: IO-26
Catalog number: 22826
Epoch time:      09273.82601818
Element set:      82
Inclination:      098.4415 deg
RA of node:       224.6834 deg
Eccentricity:    0.0008393
Arg of perigee:   313.8918 deg
Mean anomaly:     046.1575 deg
Mean motion:   14.29527255 rev/day
Decay rate:        1.7e-07 rev/day^2
Epoch rev:           83510
Checksum:              315

Satellite: GO-32
Catalog number: 25397
Epoch time:      09274.44594717
Element set:       3
Inclination:      098.3238 deg
RA of node:       291.0803 deg
Eccentricity:    0.0000546
Arg of perigee:   352.1130 deg
Mean anomaly:     008.0056 deg
Mean motion:   14.23164379 rev/day
Decay rate:        7.8e-07 rev/day^2
Epoch rev:           58324
Checksum:              290

Satellite: NO-44
Catalog number: 26931
Epoch time:      09273.85748668
Element set:     277
Inclination:      067.0517 deg
RA of node:       152.1073 deg
Eccentricity:    0.0006774
Arg of perigee:   272.3657 deg
Mean anomaly:     087.6596 deg
Mean motion:   14.29567170 rev/day
Decay rate:      -2.26e-06 rev/day^2
Epoch rev:           41768
Checksum:              349

Satellite: SO-50
Catalog number: 27607
Epoch time:      09273.93954920
Element set:     997
Inclination:      064.5580 deg
RA of node:       063.9040 deg
Eccentricity:    0.0054611
Arg of perigee:   179.0329 deg
Mean anomaly:     181.0885 deg
Mean motion:   14.71461875 rev/day
Decay rate:        2.8e-07 rev/day^2
Epoch rev:           36423
Checksum:              326

Satellite: CO-55
Catalog number: 27844
Epoch time:      09274.62319075
Element set:     679
Inclination:      098.7142 deg
RA of node:       282.2957 deg
Eccentricity:    0.0009380
Arg of perigee:   193.3187 deg
Mean anomaly:     166.7753 deg
Mean motion:   14.20658068 rev/day
Decay rate:        4.1e-07 rev/day^2
Epoch rev:           32437
Checksum:              340

